Find Starlink 30235

NORAD ID: 57294 Int'l Des: 2023-096 Owner: SPXS Country: US Constellation: starlink operational
LEOCIRCULAR

Live-Position

3D-Globus wird geladen...

Über Starlink 30235

Beschreibung wird geladen...

Nächste Überflüge

Passes for default location (London). Set your location on the main map for personalized predictions.

Höhenverlauf

Loading altitude history...

Zweizeiliger Elementsatz

1 57294U 23096E 26129.99750638 -.00001960 00000-0 -61663-4 0 9998
2 57294 43.0002 236.9434 0001089 276.2127 83.8601 15.27605131156991
Epoch: 9. Mai 2026 • Age: 15 hours

Aktueller Status

Höhe 485.7 km
Geschwindigkeit 7.62 km/s
Subsatellitenpunkt -14.94°S, 22.64°W
Startdatum 10. Juli 2023
Alter 2.8 years
Typ internet

Technische Details

Klassifizierung Payload
Masse 730.00 kg
Trockenmasse 700.00 kg
Gesamtmasse 730.00 kg
Länge 0.30 m
Durchmesser 4.10 m
Spannweite 29.00 m
Form Box + pan
Hersteller SPXS
Bus-Typ Starlink V2M
Phasenstatus In Orbit
Besitzer/Staat SPXS/US

Most Searched